| time (UTC) | temp F | wind direction | speed knots | gust knots | rain 1hr in | rain 24hr in | rain mn in | humidity % | barometer mb |
| 20260506115414 | 84 | 22 | 2.6 | 4.3 | 0.00 | 0.00 | 0.00 | 28 | 1008.7 |
| 20260506114914 | 85 | 112 | 3.5 | 6.1 | 0.00 | 0.00 | 0.00 | 29 | 1008.7 |
| 20260506114413 | 85 | 337 | 6.1 | 6.1 | 0.00 | 0.00 | 0.00 | 30 | 1008.7 |
| 20260506113913 | 85 | 292 | 1.7 | 1.7 | 0.00 | 0.00 | 0.00 | 31 | 1008.7 |
| 20260506113413 | 85 | 292 | 1.7 | 5.2 | 0.00 | 0.00 | 0.00 | 32 | 1008.6 |
| 20260506112912 | 84 | 315 | 2.6 | 2.6 | 0.00 | 0.00 | 0.00 | 32 | 1008.6 |
| 20260506112412 | 83 | 292 | 1.7 | 5.2 | 0.00 | 0.00 | 0.00 | 34 | 1008.6 |
| 20260506111912 | 82 | 337 | 0.9 | 3.5 | 0.00 | 0.00 | 0.00 | 34 | 1008.6 |
| 20260506111411 | 80 | 292 | 2.6 | 5.2 | 0.00 | 0.00 | 0.00 | 34 | 1008.7 |
| 20260506110911 | 79 | 0 | 0.0 | 3.5 | 0.00 | 0.00 | 0.00 | 35 | 1008.8 |
| 20260506110411 | 78 | 22 | 0.0 | 5.2 | 0.00 | 0.00 | 0.00 | 34 | 1008.8 |
| 20260506105911 | 79 | 45 | 5.2 | 7.0 | 0.00 | 0.00 | 0.00 | 34 | 1009.1 |
| 20260506105410 | 79 | 315 | 0.0 | 5.2 | 0.00 | 0.00 | 0.00 | 34 | 1009.3 |
| 20260506104910 | 79 | 22 | 3.5 | 5.2 | 0.00 | 0.00 | 0.00 | 34 | 1009.2 |
| 20260506104410 | 79 | 292 | 1.7 | 7.0 | 0.00 | 0.00 | 0.00 | 35 | 1009.5 |
| 20260506103909 | 80 | 45 | 1.7 | 5.2 | 0.00 | 0.00 | 0.00 | 35 | 1009.6 |
| 20260506103409 | 80 | 22 | 4.3 | 7.0 | 0.00 | 0.00 | 0.00 | 36 | 1009.7 |
| 20260506102909 | 78 | 292 | 0.9 | 3.5 | 0.00 | 0.00 | 0.00 | 37 | 1009.8 |
| 20260506102409 | 78 | 315 | 0.9 | 6.1 | 0.00 | 0.00 | 0.00 | 37 | 1009.9 |
| 20260506101908 | 77 | 337 | 3.5 | 3.5 | 0.00 | 0.00 | 0.00 | 37 | 1010.0 |
| 20260506101408 | 77 | 45 | 0.9 | 5.2 | 0.00 | 0.00 | 0.00 | 36 | 1010.0 |
| 20260506100908 | 78 | 22 | 0.9 | 2.6 | 0.00 | 0.00 | 0.00 | 36 | 1010.2 |
| 20260506100407 | 79 | 22 | 0.9 | 3.5 | 0.00 | 0.00 | 0.00 | 36 | 1010.2 |
| 20260506095907 | 79 | 0 | 1.7 | 7.0 | 0.00 | 0.00 | 0.00 | 36 | 1010.3 |
| 20260506095407 | 80 | 22 | 3.5 | 4.3 | 0.00 | 0.00 | 0.00 | 36 | 1010.3 |
| 20260506094906 | 79 | 292 | 0.9 | 4.3 | 0.00 | 0.00 | 0.00 | 38 | 1010.3 |
| 20260506094406 | 78 | 22 | 0.0 | 5.2 | 0.00 | 0.00 | 0.00 | 38 | 1010.5 |
| 20260506093906 | 78 | 90 | 3.5 | 3.5 | 0.00 | 0.00 | 0.00 | 39 | 1010.6 |
| 20260506093406 | 78 | 45 | 3.5 | 3.5 | 0.00 | 0.00 | 0.00 | 40 | 1010.7 |
| 20260506092905 | 78 | 0 | 0.0 | 2.6 | 0.00 | 0.00 | 0.00 | 39 | 1010.6 |
| 20260506092405 | 78 | 67 | 0.0 | 1.7 | 0.00 | 0.00 | 0.00 | 39 | 1010.7 |
| 20260506091905 | 79 | 67 | 0.9 | 4.3 | 0.00 | 0.00 | 0.00 | 39 | 1010.7 |
| 20260506091404 | 80 | 45 | 3.5 | 3.5 | 0.00 | 0.00 | 0.00 | 40 | 1010.7 |
| 20260506090904 | 79 | 292 | 0.0 | 4.3 | 0.00 | 0.00 | 0.00 | 42 | 1010.8 |
| 20260506090404 | 78 | 315 | 0.0 | 7.0 | 0.00 | 0.00 | 0.00 | 42 | 1010.9 |
| 20260506085904 | 77 | 292 | 4.3 | 4.3 | 0.00 | 0.00 | 0.00 | 43 | 1010.9 |
| 20260506085403 | 76 | 315 | 0.0 | 5.2 | 0.00 | 0.00 | 0.00 | 44 | 1010.9 |
| 20260506084903 | 75 | 292 | 0.0 | 1.7 | 0.00 | 0.00 | 0.00 | 48 | 1010.8 |
| 20260506084403 | 74 | 22 | 0.0 | 1.7 | 0.00 | 0.00 | 0.00 | 46 | 1010.8 |
| 20260506083902 | 73 | 0 | 0.0 | 3.5 | 0.00 | 0.00 | 0.00 | 47 | 1010.8 |
| 20260506083402 | 73 | 45 | 3.5 | 3.5 | 0.00 | 0.00 | 0.00 | 47 | 1010.9 |
| 20260506082902 | 73 | 45 | 0.9 | 4.3 | 0.00 | 0.00 | 0.00 | 48 | 1010.9 |
| 20260506082402 | 73 | 22 | 3.5 | 3.5 | 0.00 | 0.00 | 0.00 | 49 | 1010.9 |
| 20260506081901 | 73 | 67 | 1.7 | 3.5 | 0.00 | 0.00 | 0.00 | 48 | 1010.9 |
| 20260506081401 | 72 | 112 | 0.9 | 4.3 | 0.00 | 0.00 | 0.00 | 49 | 1010.9 |
| 20260506080901 | 72 | 90 | 2.6 | 2.6 | 0.00 | 0.00 | 0.00 | 50 | 1010.9 |
| 20260506080400 | 71 | 45 | 0.9 | 3.5 | 0.00 | 0.00 | 0.00 | 50 | 1010.9 |
| 20260506073359 | 72 | 22 | 0.9 | 3.5 | 0.00 | 0.00 | 0.00 | 50 | 1011.1 |
| 20260506072858 | 71 | 90 | 0.0 | 0.9 | 0.00 | 0.00 | 0.00 | 51 | 1011.1 |
| 20260506072358 | 70 | 90 | 0.0 | 2.6 | 0.00 | 0.00 | 0.00 | 51 | 1011.1 |
| 20260506071858 | 70 | 90 | 2.6 | 3.5 | 0.00 | 0.00 | 0.00 | 51 | 1011.1 |
| 20260506071357 | 70 | 67 | 1.7 | 1.7 | 0.00 | 0.00 | 0.00 | 52 | 1011.0 |
| 20260506070857 | 70 | 67 | 0.0 | 0.9 | 0.00 | 0.00 | 0.00 | 51 | 1011.1 |
| 20260506070357 | 70 | 67 | 0.0 | 1.7 | 0.00 | 0.00 | 0.00 | 51 | 1011.1 |
| 20260506062354 | 69 | 45 | 3.5 | 3.5 | 0.00 | 0.00 | 0.00 | 52 | 1011.3 |
| 20260506061854 | 69 | 67 | 0.0 | 2.6 | 0.00 | 0.00 | 0.00 | 53 | 1011.3 |
| 20260506061354 | 67 | 67 | 1.7 | 2.6 | 0.00 | 0.00 | 0.00 | 54 | 1011.3 |
| 20260506060854 | 67 | 45 | 0.9 | 2.6 | 0.00 | 0.00 | 0.00 | 54 | 1011.3 |
| 20260506060353 | 66 | 67 | 2.6 | 2.6 | 0.00 | 0.00 | 0.00 | 56 | 1011.3 |
| 20260506051350 | 66 | 337 | 0.0 | 0.9 | 0.00 | 0.00 | 0.00 | 58 | 1011.4 |
| 20260506050850 | 65 | 0 | 0.0 | 1.7 | 0.00 | 0.00 | 0.00 | 60 | 1011.4 |
| 20260506050350 | 64 | 67 | 0.0 | 0.0 | 0.00 | 0.00 | 0.00 | 60 | 1011.3 |
| 20260506044849 | 61 | 67 | 0.0 | 0.0 | 0.00 | 0.00 | 0.00 | 64 | 1011.3 |
| 20260506044349 | 60 | 67 | 0.0 | 0.0 | 0.00 | 0.00 | 0.00 | 64 | 1011.3 |
| 20260506043848 | 60 | 67 | 0.0 | 0.0 | 0.00 | 0.00 | 0.00 | 66 | 1011.2 |
| 20260506043348 | 59 | 67 | 0.0 | 0.0 | 0.00 | 0.00 | 0.00 | 66 | 1011.2 |
| 20260506042848 | 59 | 67 | 0.0 | 0.9 | 0.00 | 0.00 | 0.00 | 66 | 1011.1 |
| 20260506042347 | 59 | 67 | 0.0 | 0.0 | 0.00 | 0.00 | 0.00 | 69 | 1011.0 |
| 20260506041847 | 57 | 67 | 0.0 | 0.0 | 0.00 | 0.00 | 0.00 | 71 | 1011.1 |
| 20260506041347 | 55 | 67 | 0.0 | 0.0 | 0.00 | 0.00 | 0.00 | 72 | 1011.0 |
| 20260506040847 | 54 | 67 | 0.0 | 0.9 | 0.00 | 0.00 | 0.00 | 72 | 1011.0 |
| 20260506040346 | 54 | 67 | 0.0 | 0.9 | 0.00 | 0.00 | 0.00 | 73 | 1011.0 |
| 20260506035846 | 54 | 67 | 0.0 | 0.0 | 0.00 | 0.00 | 0.00 | 73 | 1011.0 |
| 20260506035346 | 54 | 67 | 0.0 | 0.0 | 0.00 | 0.00 | 0.00 | 74 | 1011.0 |
| 20260506034845 | 53 | 67 | 0.0 | 0.0 | 0.00 | 0.00 | 0.00 | 76 | 1010.9 |
| 20260506034345 | 51 | 67 | 0.0 | 0.0 | 0.00 | 0.00 | 0.00 | 77 | 1011.0 |
| 20260506033845 | 50 | 67 | 0.0 | 0.9 | 0.00 | 0.00 | 0.00 | 78 | 1010.9 |
| 20260506033344 | 50 | 67 | 0.0 | 0.0 | 0.00 | 0.00 | 0.00 | 79 | 1010.9 |
| 20260506032844 | 49 | 67 | 0.0 | 0.0 | 0.00 | 0.00 | 0.00 | 79 | 1010.9 |
| 20260506032344 | 48 | 67 | 0.0 | 0.9 | 0.00 | 0.00 | 0.00 | 79 | 1010.8 |
| 20260506031844 | 48 | 67 | 0.0 | 0.0 | 0.00 | 0.00 | 0.00 | 79 | 1010.8 |
| 20260506031343 | 48 | 67 | 0.0 | 0.0 | 0.00 | 0.00 | 0.00 | 78 | 1010.8 |
| 20260506030843 | 48 | 67 | 0.0 | 0.0 | 0.00 | 0.00 | 0.00 | 78 | 1010.8 |
| 20260506030343 | 48 | 67 | 0.0 | 0.0 | 0.00 | 0.00 | 0.00 | 77 | 1010.7 |
| 20260506025842 | 48 | 67 | 0.0 | 0.0 | 0.00 | 0.00 | 0.00 | 78 | 1010.7 |
| 20260506025342 | 49 | 67 | 0.0 | 0.0 | 0.00 | 0.00 | 0.00 | 77 | 1010.7 |
| 20260506024842 | 49 | 67 | 0.0 | 0.0 | 0.00 | 0.00 | 0.00 | 76 | 1010.6 |
| 20260506024342 | 49 | 67 | 0.0 | 0.0 | 0.00 | 0.00 | 0.00 | 76 | 1010.6 |
| 20260506023841 | 49 | 67 | 0.0 | 0.0 | 0.00 | 0.00 | 0.00 | 77 | 1010.6 |
| 20260506023341 | 49 | 67 | 0.0 | 0.0 | 0.00 | 0.00 | 0.00 | 77 | 1010.6 |
| 20260506022841 | 49 | 67 | 0.0 | 0.0 | 0.00 | 0.00 | 0.00 | 77 | 1010.6 |
| 20260506022340 | 50 | 67 | 0.0 | 0.0 | 0.00 | 0.00 | 0.00 | 77 | 1010.6 |
| 20260506021840 | 50 | 67 | 0.0 | 1.7 | 0.00 | 0.00 | 0.00 | 77 | 1010.5 |
| 20260506021340 | 50 | 67 | 1.7 | 2.6 | 0.00 | 0.00 | 0.00 | 77 | 1010.6 |
| 20260506020840 | 50 | 67 | 0.9 | 1.7 | 0.00 | 0.00 | 0.00 | 77 | 1010.6 |
| 20260506020339 | 50 | 67 | 0.0 | 0.9 | 0.00 | 0.00 | 0.00 | 76 | 1010.6 |
| 20260506015839 | 50 | 67 | 0.0 | 0.9 | 0.00 | 0.00 | 0.00 | 76 | 1010.5 |
| 20260506015339 | 50 | 67 | 0.0 | 1.7 | 0.00 | 0.00 | 0.00 | 76 | 1010.4 |
| 20260506014838 | 50 | 90 | 0.0 | 0.0 | 0.00 | 0.00 | 0.00 | 75 | 1010.5 |
| 20260506014338 | 50 | 90 | 0.0 | 0.0 | 0.00 | 0.00 | 0.00 | 75 | 1010.4 |
| 20260506013838 | 50 | 90 | 0.0 | 1.7 | 0.00 | 0.00 | 0.00 | 75 | 1010.4 |
| 20260506013337 | 50 | 90 | 0.0 | 0.9 | 0.00 | 0.00 | 0.00 | 74 | 1010.6 |
| 20260506012837 | 50 | 90 | 0.0 | 2.6 | 0.00 | 0.00 | 0.00 | 73 | 1010.5 |
| 20260506012337 | 51 | 67 | 0.0 | 1.7 | 0.00 | 0.00 | 0.00 | 73 | 1010.5 |
| 20260506011837 | 51 | 67 | 0.0 | 2.6 | 0.00 | 0.00 | 0.00 | 72 | 1010.5 |
| 20260506011336 | 51 | 67 | 1.7 | 2.6 | 0.00 | 0.00 | 0.00 | 72 | 1010.5 |
| 20260506010836 | 51 | 67 | 0.0 | 1.7 | 0.00 | 0.00 | 0.00 | 72 | 1010.5 |
| 20260506010336 | 51 | 67 | 0.0 | 0.9 | 0.00 | 0.00 | 0.00 | 71 | 1010.5 |
| 20260506005835 | 51 | 45 | 0.0 | 0.0 | 0.00 | 0.00 | 0.00 | 71 | 1010.5 |
| 20260506005335 | 51 | 45 | 0.0 | 0.0 | 0.00 | 0.00 | 0.00 | 71 | 1010.4 |
| 20260506004835 | 51 | 45 | 0.0 | 0.9 | 0.00 | 0.00 | 0.00 | 71 | 1010.4 |
| 20260506004335 | 51 | 45 | 0.9 | 0.9 | 0.00 | 0.00 | 0.00 | 70 | 1010.3 |
| 20260506003834 | 51 | 45 | 0.9 | 0.9 | 0.00 | 0.00 | 0.00 | 70 | 1010.3 |
| 20260506003334 | 52 | 45 | 0.0 | 0.0 | 0.00 | 0.00 | 0.00 | 70 | 1010.3 |
| 20260506002834 | 52 | 45 | 0.0 | 0.0 | 0.00 | 0.00 | 0.00 | 70 | 1010.2 |
| 20260506002333 | 52 | 45 | 0.0 | 0.9 | 0.00 | 0.00 | 0.00 | 70 | 1010.2 |
| 20260506001833 | 52 | 45 | 0.0 | 0.0 | 0.00 | 0.00 | 0.00 | 70 | 1010.1 |
| 20260506001333 | 52 | 45 | 0.0 | 0.0 | 0.00 | 0.00 | 0.00 | 70 | 1009.9 |
| 20260506000833 | 52 | 45 | 0.0 | 0.9 | 0.00 | 0.00 | 0.00 | 70 | 1010.0 |
| 20260506000332 | 53 | 45 | 0.0 | 2.6 | 0.00 | 0.00 | 0.00 | 70 | 1009.9 |
| 20260505235832 | 53 | 45 | 1.7 | 1.7 | 0.00 | 0.00 | 0.00 | 70 | 1009.9 |
| 20260505235332 | 53 | 45 | 0.0 | 0.0 | 0.00 | 0.00 | 0.00 | 70 | 1009.9 |
| 20260505234832 | 53 | 45 | 0.0 | 0.0 | 0.00 | 0.00 | 0.00 | 70 | 1009.8 |
| 20260505234331 | 53 | 45 | 0.0 | 1.7 | 0.00 | 0.00 | 0.00 | 70 | 1009.8 |
| 20260505233831 | 53 | 45 | 1.7 | 2.6 | 0.00 | 0.00 | 0.00 | 70 | 1009.8 |
| 20260505233330 | 53 | 45 | 1.7 | 2.6 | 0.00 | 0.00 | 0.00 | 69 | 1009.9 |
| 20260505232830 | 53 | 45 | 0.0 | 0.0 | 0.00 | 0.00 | 0.00 | 69 | 1009.9 |
| 20260505232330 | 54 | 45 | 1.7 | 2.6 | 0.00 | 0.00 | 0.00 | 68 | 1009.9 |
| 20260505231830 | 54 | 45 | 0.0 | 0.9 | 0.00 | 0.00 | 0.00 | 68 | 1010.0 |
| 20260505231329 | 54 | 45 | 0.0 | 0.9 | 0.00 | 0.00 | 0.00 | 68 | 1010.0 |
| 20260505230829 | 55 | 45 | 0.0 | 1.7 | 0.00 | 0.00 | 0.00 | 67 | 1010.0 |
| 20260505230329 | 55 | 45 | 0.0 | 1.7 | 0.00 | 0.00 | 0.00 | 67 | 1010.1 |
| 20260505225828 | 55 | 67 | 0.9 | 7.8 | 0.00 | 0.00 | 0.00 | 68 | 1009.9 |
| 20260505225328 | 55 | 45 | 2.6 | 2.6 | 0.00 | 0.00 | 0.00 | 68 | 1010.0 |
| 20260505224828 | 55 | 45 | 0.9 | 2.6 | 0.00 | 0.00 | 0.00 | 67 | 1009.9 |
| 20260505224327 | 55 | 45 | 0.9 | 2.6 | 0.00 | 0.00 | 0.00 | 67 | 1010.0 |
| 20260505223827 | 55 | 45 | 0.9 | 1.7 | 0.00 | 0.00 | 0.00 | 66 | 1009.9 |
| 20260505223327 | 55 | 45 | 1.7 | 2.6 | 0.00 | 0.00 | 0.00 | 66 | 1009.9 |
| 20260505222827 | 56 | 45 | 1.7 | 3.5 | 0.00 | 0.00 | 0.00 | 66 | 1009.9 |
| 20260505222326 | 56 | 45 | 1.7 | 2.6 | 0.00 | 0.00 | 0.00 | 66 | 1009.8 |
| 20260505221826 | 56 | 67 | 1.7 | 2.6 | 0.00 | 0.00 | 0.00 | 66 | 1009.9 |
| 20260505221326 | 56 | 45 | 1.7 | 3.5 | 0.00 | 0.00 | 0.00 | 66 | 1009.8 |
| 20260505220825 | 56 | 45 | 1.7 | 3.5 | 0.00 | 0.00 | 0.00 | 66 | 1010.0 |
| 20260505220325 | 56 | 67 | 0.0 | 1.7 | 0.00 | 0.00 | 0.00 | 65 | 1010.0 |
| 20260505215825 | 57 | 67 | 0.9 | 0.9 | 0.00 | 0.00 | 0.00 | 65 | 1010.0 |
| 20260505215325 | 57 | 67 | 0.0 | 2.6 | 0.00 | 0.00 | 0.00 | 65 | 1009.9 |
| 20260505214824 | 57 | 67 | 0.9 | 1.7 | 0.00 | 0.00 | 0.00 | 64 | 1009.9 |
| 20260505214324 | 57 | 45 | 0.9 | 2.6 | 0.00 | 0.00 | 0.00 | 64 | 1009.9 |
| 20260505213824 | 57 | 67 | 0.0 | 1.7 | 0.00 | 0.00 | 0.00 | 64 | 1009.9 |
| 20260505213323 | 57 | 67 | 0.0 | 3.5 | 0.00 | 0.00 | 0.00 | 64 | 1010.0 |
| 20260505212823 | 57 | 45 | 1.7 | 7.0 | 0.00 | 0.00 | 0.00 | 64 | 1010.0 |
| 20260505212323 | 58 | 45 | 0.9 | 2.6 | 0.00 | 0.00 | 0.00 | 63 | 1010.1 |
| 20260505211823 | 58 | 45 | 0.0 | 2.6 | 0.00 | 0.00 | 0.00 | 63 | 1010.0 |
| 20260505211322 | 59 | 22 | 0.0 | 3.5 | 0.00 | 0.00 | 0.00 | 62 | 1010.0 |
| 20260505210822 | 59 | 22 | 2.6 | 5.2 | 0.00 | 0.00 | 0.00 | 63 | 1010.0 |
| 20260505210322 | 59 | 45 | 0.0 | 2.6 | 0.00 | 0.00 | 0.00 | 62 | 1010.0 |
| 20260505205821 | 59 | 45 | 1.7 | 2.6 | 0.00 | 0.00 | 0.00 | 62 | 1009.9 |
| 20260505205321 | 59 | 67 | 0.0 | 3.5 | 0.00 | 0.00 | 0.00 | 62 | 1009.8 |
| 20260505204821 | 59 | 67 | 0.0 | 2.6 | 0.00 | 0.00 | 0.00 | 62 | 1009.8 |
| 20260505204320 | 59 | 67 | 2.6 | 3.5 | 0.00 | 0.00 | 0.00 | 61 | 1009.8 |
| 20260505203820 | 59 | 45 | 0.0 | 1.7 | 0.00 | 0.00 | 0.00 | 60 | 1009.9 |
| 20260505203320 | 60 | 45 | 1.7 | 1.7 | 0.00 | 0.00 | 0.00 | 58 | 1009.9 |
| 20260505202820 | 61 | 22 | 0.0 | 3.5 | 0.00 | 0.00 | 0.00 | 56 | 1009.9 |
| 20260505202319 | 61 | 337 | 2.6 | 2.6 | 0.00 | 0.00 | 0.00 | 54 | 1009.8 |
| 20260505201819 | 62 | 202 | 0.0 | 2.6 | 0.00 | 0.00 | 0.00 | 53 | 1009.7 |
| 20260505201319 | 62 | 202 | 0.0 | 1.7 | 0.00 | 0.00 | 0.00 | 53 | 1009.7 |
| 20260505200818 | 62 | 202 | 1.7 | 1.7 | 0.00 | 0.00 | 0.00 | 53 | 1009.7 |
| 20260505200318 | 63 | 180 | 0.0 | 0.9 | 0.00 | 0.00 | 0.00 | 52 | 1009.5 |
| 20260505195818 | 62 | 180 | 0.0 | 0.9 | 0.00 | 0.00 | 0.00 | 52 | 1009.4 |
| 20260505195318 | 62 | 180 | 0.0 | 0.9 | 0.00 | 0.00 | 0.00 | 52 | 1009.5 |
| 20260505194817 | 62 | 180 | 0.0 | 0.0 | 0.00 | 0.00 | 0.00 | 52 | 1009.5 |
| 20260505194317 | 63 | 180 | 0.0 | 0.0 | 0.00 | 0.00 | 0.00 | 51 | 1009.4 |
| 20260505193817 | 63 | 180 | 0.0 | 0.9 | 0.00 | 0.00 | 0.00 | 51 | 1009.4 |
| 20260505193316 | 63 | 180 | 0.0 | 0.9 | 0.00 | 0.00 | 0.00 | 51 | 1009.5 |
| 20260505192816 | 63 | 202 | 0.0 | 0.0 | 0.00 | 0.00 | 0.00 | 51 | 1009.5 |
| 20260505192316 | 63 | 202 | 0.0 | 0.0 | 0.00 | 0.00 | 0.00 | 51 | 1009.4 |
| 20260505191815 | 63 | 202 | 0.0 | 1.7 | 0.00 | 0.00 | 0.00 | 50 | 1009.4 |
| 20260505191315 | 64 | 202 | 0.0 | 0.0 | 0.00 | 0.00 | 0.00 | 50 | 1009.4 |
| 20260505190815 | 64 | 202 | 0.0 | 0.0 | 0.00 | 0.00 | 0.00 | 50 | 1009.3 |
| 20260505190315 | 64 | 202 | 0.0 | 1.7 | 0.00 | 0.00 | 0.00 | 49 | 1009.4 |
| 20260505185814 | 64 | 202 | 0.0 | 1.7 | 0.00 | 0.00 | 0.00 | 49 | 1009.4 |
| 20260505185314 | 65 | 202 | 0.0 | 0.9 | 0.00 | 0.00 | 0.00 | 48 | 1009.5 |
| 20260505184814 | 65 | 202 | 0.0 | 0.0 | 0.00 | 0.00 | 0.00 | 48 | 1009.4 |
| 20260505184313 | 65 | 202 | 0.0 | 0.0 | 0.00 | 0.00 | 0.00 | 47 | 1009.2 |
| 20260505183813 | 66 | 202 | 0.0 | 0.0 | 0.00 | 0.00 | 0.00 | 47 | 1009.2 |
| 20260505183313 | 66 | 202 | 0.0 | 0.0 | 0.00 | 0.00 | 0.00 | 47 | 1009.2 |
| 20260505182813 | 66 | 202 | 0.0 | 0.0 | 0.00 | 0.00 | 0.00 | 47 | 1009.1 |
| 20260505182312 | 66 | 202 | 0.0 | 0.9 | 0.00 | 0.00 | 0.00 | 47 | 1009.2 |
| 20260505181812 | 66 | 202 | 0.0 | 2.6 | 0.00 | 0.00 | 0.00 | 47 | 1009.0 |
| 20260505181312 | 67 | 202 | 0.9 | 4.3 | 0.00 | 0.00 | 0.00 | 47 | 1009.0 |
| 20260505180811 | 67 | 90 | 0.0 | 2.6 | 0.00 | 0.00 | 0.00 | 47 | 1008.8 |
| 20260505180311 | 67 | 90 | 2.6 | 3.5 | 0.00 | 0.00 | 0.00 | 47 | 1008.6 |
| 20260505175811 | 67 | 90 | 0.0 | 2.6 | 0.00 | 0.00 | 0.00 | 47 | 1008.4 |
| 20260505175310 | 68 | 67 | 2.6 | 2.6 | 0.00 | 0.00 | 0.00 | 46 | 1008.3 |
| 20260505174810 | 68 | 90 | 0.0 | 0.9 | 0.00 | 0.00 | 0.00 | 45 | 1008.5 |
| 20260505174310 | 69 | 90 | 0.0 | 0.0 | 0.00 | 0.00 | 0.00 | 45 | 1008.3 |
| 20260505173810 | 69 | 90 | 0.0 | 5.2 | 0.00 | 0.00 | 0.00 | 45 | 1008.3 |
| 20260505173309 | 69 | 67 | 2.6 | 5.2 | 0.00 | 0.00 | 0.00 | 44 | 1008.3 |
| 20260505172809 | 71 | 67 | 5.2 | 9.6 | 0.00 | 0.00 | 0.00 | 43 | 1008.3 |
| 20260505172309 | 72 | 67 | 5.2 | 7.8 | 0.00 | 0.00 | 0.00 | 39 | 1008.2 |
| 20260505171808 | 73 | 337 | 0.0 | 0.9 | 0.00 | 0.00 | 0.00 | 37 | 1008.2 |
| 20260505171308 | 74 | 292 | 0.0 | 0.0 | 0.00 | 0.00 | 0.00 | 38 | 1008.2 |
| 20260505170808 | 74 | 292 | 0.0 | 0.0 | 0.00 | 0.00 | 0.00 | 38 | 1008.2 |
| 20260505170308 | 74 | 292 | 0.0 | 0.0 | 0.00 | 0.00 | 0.00 | 38 | 1008.2 |
| 20260505165807 | 75 | 292 | 0.0 | 1.7 | 0.00 | 0.00 | 0.00 | 37 | 1008.2 |
| 20260505165307 | 75 | 292 | 0.0 | 1.7 | 0.00 | 0.00 | 0.00 | 37 | 1008.2 |
| 20260505164807 | 75 | 292 | 0.0 | 2.6 | 0.00 | 0.00 | 0.00 | 37 | 1008.2 |
| 20260505164306 | 75 | 292 | 0.0 | 3.5 | 0.00 | 0.00 | 0.00 | 37 | 1008.2 |
| 20260505163806 | 75 | 292 | 0.0 | 1.7 | 0.00 | 0.00 | 0.00 | 37 | 1008.2 |
| 20260505163306 | 75 | 292 | 0.0 | 3.5 | 0.00 | 0.00 | 0.00 | 36 | 1008.2 |
| 20260505162805 | 75 | 292 | 0.0 | 3.5 | 0.00 | 0.00 | 0.00 | 36 | 1008.2 |
| 20260505162307 | 75 | 292 | 0.0 | 3.5 | 0.00 | 0.00 | 0.00 | 37 | 1008.2 |
| 20260505161805 | 75 | 292 | 0.0 | 0.9 | 0.00 | 0.00 | 0.00 | 36 | 1008.2 |
| 20260505161305 | 76 | 315 | 0.0 | 3.5 | 0.00 | 0.00 | 0.00 | 34 | 1008.2 |
| 20260505160804 | 76 | 315 | 3.5 | 3.5 | 0.00 | 0.00 | 0.00 | 34 | 1008.2 |
| 20260505160304 | 76 | 315 | 0.0 | 0.9 | 0.00 | 0.00 | 0.00 | 33 | 1008.2 |
| 20260505153302 | 83 | 315 | 0.0 | 6.1 | 0.00 | 0.00 | 0.00 | 30 | 1008.3 |
| 20260505152802 | 85 | 315 | 0.0 | 2.6 | 0.00 | 0.00 | 0.00 | 30 | 1008.2 |
| 20260505152304 | 87 | 225 | 0.0 | 7.8 | 0.00 | 0.00 | 0.00 | 29 | 1008.3 |
| 20260505151801 | 88 | 180 | 6.1 | 8.7 | 0.00 | 0.00 | 0.00 | 28 | 1008.3 |
| 20260505151301 | 89 | 292 | 0.0 | 8.7 | 0.00 | 0.00 | 0.00 | 28 | 1008.4 |
| 20260505150801 | 88 | 292 | 0.0 | 1.7 | 0.00 | 0.00 | 0.00 | 29 | 1008.4 |
| 20260505150301 | 87 | 292 | 0.9 | 3.5 | 0.00 | 0.00 | 0.00 | 29 | 1008.6 |
| 20260505140257 | 79 | 292 | 0.9 | 5.2 | 0.00 | 0.00 | 0.00 | 34 | 1009.5 |
| 20260505130253 | 80 | 22 | 0.0 | 4.3 | 0.00 | 0.00 | 0.00 | 31 | 1010.2 |
| 20260505124753 | 78 | 292 | 4.3 | 5.2 | 0.00 | 0.00 | 0.00 | 32 | 1010.4 |
| 20260505124252 | 79 | 0 | 0.0 | 7.8 | 0.00 | 0.00 | 0.00 | 31 | 1010.4 |
| 20260505123752 | 79 | 292 | 0.0 | 7.8 | 0.00 | 0.00 | 0.00 | 32 | 1010.5 |
| 20260505123252 | 80 | 292 | 0.0 | 3.5 | 0.00 | 0.00 | 0.00 | 33 | 1010.6 |
| 20260505122751 | 79 | 292 | 1.7 | 4.3 | 0.00 | 0.00 | 0.00 | 34 | 1010.6 |
| 20260505122251 | 79 | 45 | 0.0 | 3.5 | 0.00 | 0.00 | 0.00 | 32 | 1010.7 |
| 20260505121751 | 80 | 0 | 0.9 | 4.3 | 0.00 | 0.00 | 0.00 | 32 | 1010.7 |
| 20260505121251 | 80 | 292 | 4.3 | 4.3 | 0.00 | 0.00 | 0.00 | 31 | 1010.8 |
| 20260505120750 | 81 | 315 | 0.0 | 5.2 | 0.00 | 0.00 | 0.00 | 33 | 1010.8 |
| 20260505120250 | 80 | 292 | 1.7 | 3.5 | 0.00 | 0.00 | 0.00 | 34 | 1010.9 |
| 20260505115750 | 80 | 292 | 0.0 | 3.5 | 0.00 | 0.00 | 0.00 | 32 | 1011.0 |